Theta_e
312 312 313 313 313 314 308 306 316 313 312 316 314 316 316 316 321 318 319 319 319 316 314 318 321 322 321 321 320 316 312 313 320 316 314 313 313 316 315 321 318 313 315 320
312 311 312 313 313 314 306 309 316 313 312 320 317 317 317 316 323 321 324 323 320 316 316 323 323 322 319 320 322 318 316 317 321 322 319 316 315 311 312 312 312 314 319 320
311 311 312 312 313 314 308 307 320 316 314 316 319 324 324 324 323 324 324 321 319 320 322 322 323 325 322 320 319 320 317 316 319 325 321 317 319 314 311 315 317 316 315 316
311 311 311 312 312 313 309 305 310 315 318 318 318 322 324 323 326 323 324 323 321 321 324 324 324 323 319 319 321 317 317 320 317 314 317 317 317 317 312 315 316 320 318 315
311 310 311 311 312 312 308 308 307 306 311 311 319 320 324 324 323 323 325 324 320 322 321 322 323 320 320 322 316 316 313 318 313 313 314 316 319 316 315 314 313 314 314 315
311 310 310 310 312 312 306 305 305 306 311 311 317 317 320 322 320 320 314 319 319 324 315 312 317 315 314 316 315 314 315 311 315 318 312 312 317 313 315 315 312 315 317 317
310 310 309 310 311 312 308 306 305 308 313 312 314 314 317 318 317 322 312 314 317 314 307 310 312 312 312 315 309 310 315 312 312 312 312 315 314 310 313 315 311 311 311 309
310 309 309 310 311 312 312 308 306 306 310 310 311 312 310 308 309 310 311 308 307 306 309 322 324 322 317 313 310 309 308 312 313 315 313 313 315 312 311 314 315 309 313 312
310 309 309 310 311 312 312 308 309 303 308 309 308 309 308 310 307 310 308 305 305 310 315 317 324 325 323 318 314 309 309 312 315 313 317 316 314 313 310 313 318 313 313 312
310 309 308 310 310 312 312 310 309 305 307 306 306 308 309 306 305 309 307 307 310 310 317 318 318 319 315 318 315 314 313 311 312 316 316 315 312 312 310 318 316 312 311 311
310 308 309 309 310 312 312 311 310 308 307 307 309 307 305 306 306 309 306 312 310 312 319 320 316 317 313 314 311 311 314 314 314 313 316 317 310 312 315 311 308 308 307 307
309 308 309 309 311 312 312 311 310 311 306 308 309 309 308 306 307 304 304 310 308 310 312 310 309 312 308 312 317 309 314 311 313 312 313 309 308 310 307 306 307 307 306 305
309 308 308 308 310 311 312 312 310 309 306 309 307 310 310 310 310 308 311 307 306 308 305 306 308 313 307 314 313 311 309 308 311 311 310 309 307 306 306 306 306 305 304 304
308 307 308 308 309 312 313 312 312 311 306 311 312 309 308 310 309 308 308 306 306 305 306 308 309 312 304 308 309 310 308 308 309 309 308 308 308 307 304 303 302 302 301 302
308 307 307 308 309 312 312 312 312 312 310 315 313 308 308 308 309 308 308 307 307 307 310 310 314 308 308 303 306 309 305 308 311 312 307 308 307 304 303 303 302 301 301 300
307 307 307 308 310 312 312 313 311 311 311 312 314 307 307 308 308 307 306 306 305 304 307 307 306 305 306 306 310 307 304 304 305 307 303 302 301 300 301 299 298 297 296 297
306 306 307 308 311 311 309 310 309 311 310 310 310 311 307 306 309 307 308 306 308 309 307 307 306 307 304 305 310 306 303 304 303 301 302 303 302 302 297 297 298 298 296 296
306 307 308 310 310 309 308 309 309 309 306 306 307 308 310 307 311 312 307 311 310 308 309 307 308 307 305 309 305 303 301 300 300 300 299 301 296 295 295 294 293 294 294 294
306 308 309 308 307 307 308 308 308 308 307 307 306 310 313 307 308 308 307 308 313 308 311 311 310 309 306 308 303 302 300 302 299 294 293 294 296 295 293 291 291 294 294 293
308 308 304 305 304 308 309 307 306 303 303 302 305 303 310 307 308 307 308 306 309 311 310 307 310 310 305 303 302 302 301 299 296 298 295 292 289 291 291 292 293 293 293 293
306 302 302 302 304 302 300 303 300 303 303 305 304 303 307 303 308 307 304 304 302 307 307 310 306 304 302 298 299 296 296 298 298 298 296 295 293 291 292 292 292 292 292 293
304 303 302 301 300 299 301 300 299 304 303 303 306 302 302 301 300 304 300 299 295 300 302 308 304 299 295 295 296 296 296 296 293 292 292 291 291 291 291 291 291 292 293 292
304 302 301 303 300 303 301 306 303 295 295 302 302 303 301 298 298 296 296 296 296 298 304 303 299 293 291 291 292 293 294 293 292 291 291 291 291 292 292 291 292 292 292 291
301 302 304 304 303 301 299 297 296 295 299 303 302 301 301 299 296 300 298 298 300 300 298 299 293 290 294 291 290 292 292 292 291 290 289 289 289 289 291 291 291 290 289 288
299 302 306 302 292 289 284 286 296 298 302 300 299 296 299 299 301 298 299 302 302 301 297 292 287 287 290 291 290 290 290 289 289 288 288 288 288 287 287 288 288 288 287 286
297 296 296 292 290 293 294 293 300 297 300 296 295 294 294 299 297 302 295 298 297 295 291 288 286 292 291 291 289 288 288 287 287 288 288 288 288 288 288 287 286 285 284 284
299 295 291 288 285 292 294 296 299 297 301 293 294 298 298 296 298 301 293 294 292 287 285 285 289 292 291 289 289 288 288 288 288 288 287 288 288 288 286 285 285 284 283 282
Wind_Speed
14 12 10 8 7 6 5 4 2 6 30 6 3 3 5 7 9 17 12 8 5 7 10 8 6 10 5 16 8 7 6 6 4 4 1 4 6 8 7 4 3 1 2 5
12 12 10 7 8 6 4 3 2 12 7 3 5 4 13 13 9 12 4 5 4 9 8 7 5 7 11 14 16 9 6 2 5 4 1 3 4 4 4 4 3 6 5 4
12 12 11 8 8 7 4 2 3 3 4 2 3 5 2 5 4 2 3 4 7 7 9 2 6 7 5 10 11 4 5 3 5 8 4 6 5 5 5 8 4 5 6 4
12 12 12 8 8 9 6 2 5 4 5 7 10 4 6 9 5 7 3 5 14 10 5 4 5 5 4 3 8 4 3 3 3 1 2 6 6 8 11 10 10 10 7 8
12 12 13 10 9 9 5 3 3 1 2 3 7 7 4 11 6 4 5 9 18 5 6 6 10 8 5 8 3 6 2 3 3 1 2 4 5 6 12 11 4 7 5 7
13 12 13 13 11 11 4 3 3 2 2 2 4 4 5 6 5 2 3 12 5 4 1 3 7 7 3 6 6 4 5 6 4 3 2 5 4 10 11 7 5 11 11 9
14 12 14 15 13 15 6 4 1 2 3 3 4 5 3 5 3 4 4 4 5 1 4 4 14 11 11 10 7 2 5 4 3 3 2 2 5 1 6 8 4 5 3 5
14 12 14 15 14 15 13 5 3 3 3 2 1 4 5 6 4 4 2 5 4 3 2 5 5 4 5 5 5 6 1 5 3 4 4 4 1 4 6 7 5 6 8 6
14 13 16 15 14 14 12 9 9 1 1 4 2 4 4 4 4 3 4 3 3 4 3 3 4 4 5 6 6 1 5 4 2 2 4 6 1 2 4 4 3 7 8 8
15 14 17 15 15 14 12 5 11 2 2 2 1 3 5 4 4 4 4 3 2 3 2 2 3 3 3 4 6 3 3 2 6 3 3 5 4 3 3 4 3 5 5 6
15 15 16 16 15 13 13 3 10 4 2 3 2 2 3 3 2 5 6 4 1 3 2 1 2 3 4 3 4 5 6 6 4 3 2 6 3 4 6 3 4 6 5 4
16 17 17 16 15 13 13 4 8 7 2 1 1 5 4 2 0 5 1 3 5 5 4 2 3 2 2 4 4 0 3 4 4 6 3 1 2 2 3 3 6 4 6 5
17 19 18 17 16 13 14 5 13 4 3 3 3 2 3 7 5 1 4 1 4 2 1 4 3 3 3 4 4 3 2 2 3 3 0 2 4 4 5 4 6 6 5 6
19 20 19 17 16 13 15 6 12 3 3 4 1 2 2 7 6 1 1 6 6 5 2 3 3 3 2 3 2 3 3 5 5 2 2 4 2 3 6 7 7 8 6 4
20 21 19 17 16 11 12 7 10 8 3 3 2 1 6 9 6 12 11 7 4 2 3 3 2 2 3 1 2 2 4 6 5 5 8 4 5 6 6 7 6 5 6 4
23 21 19 17 16 13 8 2 5 8 6 4 3 2 4 8 12 12 7 4 3 3 3 2 1 1 2 3 3 3 3 2 3 4 5 3 8 7 4 7 6 4 6 4
23 22 20 17 15 15 2 2 4 9 5 3 3 2 2 2 2 3 3 4 3 3 2 2 2 0 3 3 4 4 7 5 3 6 11 6 2 5 6 8 7 8 6 5
25 22 19 16 14 9 3 4 5 5 6 3 3 1 2 3 2 2 2 2 2 4 2 1 2 1 2 3 4 4 6 7 6 2 4 7 9 7 6 6 6 5 4 4
27 24 21 12 3 2 5 9 8 6 2 4 2 5 4 1 2 2 2 2 2 1 1 1 2 2 4 6 7 8 8 9 10 5 7 8 7 7 6 5 4 5 4 5
32 22 3 2 4 18 13 2 3 4 3 3 2 1 3 2 2 2 2 2 1 1 1 0 2 3 3 4 6 9 12 12 15 10 4 3 3 6 6 6 4 4 4 4
8 3 2 6 17 3 3 2 3 1 1 1 2 2 5 1 3 3 1 2 1 2 2 2 2 4 4 3 5 5 5 12 7 6 5 6 8 8 6 5 5 5 6 6
11 16 11 6 3 3 4 3 1 4 6 3 4 3 3 1 2 3 2 3 2 2 1 1 3 3 2 4 5 6 8 8 8 7 11 9 8 9 7 5 4 6 7 7
16 5 4 3 0 3 8 9 4 2 4 5 4 4 4 2 3 3 3 4 3 1 1 4 4 2 2 3 5 6 7 7 8 7 9 12 10 9 6 5 5 4 4 4
3 3 7 6 5 5 4 4 4 3 4 9 7 4 3 2 3 3 5 0 3 2 3 5 3 4 4 4 5 8 8 8 8 8 8 8 8 6 5 5 4 5 4 5
3 3 5 4 2 2 2 2 3 1 7 7 5 4 3 2 4 2 4 4 4 5 5 3 3 4 5 5 4 7 7 7 6 5 5 5 6 5 3 1 2 3 3 4
2 2 3 3 3 1 1 2 4 1 7 3 3 4 4 2 6 4 6 7 6 4 3 2 3 8 7 6 6 6 6 6 5 5 5 5 6 4 3 2 0 2 4 5
2 1 2 2 2 3 2 2 3 3 6 2 3 5 5 4 3 5 4 5 3 3 2 1 3 7 7 6 6 6 6 5 6 5 5 4 4 4 3 2 2 1 3 4
Wind_Direction
270 268 265 269 278 282 166 158 232 156 161 161 188 213 200 225 218 202 208 161 140 156 153 166 175 182 232 171 181 174 213 127 140 180 99 204 164 176 180 150 198 101 124 273
264 266 257 249 261 237 160 186 125 153 188 228 221 232 245 213 185 206 204 163 164 147 147 180 168 166 202 187 200 183 182 135 110 113 357 28 189 165 162 115 85 181 154 252
255 258 247 236 248 223 182 144 150 133 236 254 284 217 215 173 208 234 227 181 132 138 150 159 172 153 187 184 199 201 123 128 160 191 153 137 174 171 182 178 179 177 218 238
248 249 240 231 241 210 174 169 227 179 192 231 228 215 200 226 200 226 238 157 173 161 136 124 135 159 121 144 151 115 160 169 147 7 225 188 177 178 179 197 203 204 214 212
250 239 234 228 232 197 175 195 177 214 248 232 186 193 220 196 215 212 189 151 189 184 152 189 171 146 181 161 176 125 296 182 131 80 126 172 203 203 196 205 166 240 165 238
236 234 230 226 222 206 182 225 272 153 203 191 178 198 193 201 174 100 28 140 123 120 128 217 133 105 98 133 129 121 147 138 145 211 161 143 284 206 191 201 194 203 210 228
233 232 230 223 219 218 208 225 167 168 245 202 222 153 133 153 216 119 6 42 114 242 80 96 75 80 69 113 45 44 146 108 57 148 115 199 247 76 189 176 180 187 113 148
232 231 227 222 218 224 216 217 181 203 258 208 201 144 121 114 51 72 70 18 27 18 288 80 72 28 83 42 8 23 48 141 128 151 193 286 212 199 154 172 222 188 151 132
229 232 221 221 220 221 215 225 219 203 188 241 127 134 166 136 106 66 6 357 2 31 38 93 126 174 162 170 150 213 68 78 126 175 159 205 248 173 172 134 276 173 143 137
233 233 219 219 220 218 212 212 199 161 215 264 153 171 168 121 97 101 139 140 37 24 73 146 149 142 157 150 148 174 92 71 183 166 209 287 226 160 143 129 228 122 124 129
231 226 215 216 218 214 203 201 202 188 156 305 336 7 134 101 135 144 163 96 165 77 171 180 189 129 198 117 144 182 167 156 183 111 139 255 153 105 165 164 54 115 110 118
229 217 210 213 214 210 202 198 190 189 106 172 29 71 46 0 54 127 31 138 163 169 116 163 113 112 110 170 193 65 201 177 181 176 211 290 354 350 78 106 117 126 118 126
219 212 206 209 212 217 199 190 166 160 108 23 45 347 9 29 16 353 118 268 153 144 161 152 146 129 138 157 228 127 240 200 111 118 347 49 85 75 84 99 104 103 102 118
213 207 204 203 209 215 202 193 190 176 122 116 197 348 3 345 8 36 64 131 98 105 108 101 122 125 194 184 150 154 197 133 133 69 47 77 342 107 122 97 95 93 72 83
206 202 198 198 201 204 198 205 198 208 143 128 123 117 12 19 77 84 95 84 93 84 67 70 125 110 123 9 75 223 191 168 162 211 190 148 171 156 131 117 113 113 126 123
196 196 193 191 191 193 159 173 209 186 168 114 127 335 23 28 70 66 62 64 71 81 106 119 79 295 106 123 192 262 189 194 165 172 121 74 110 102 92 117 128 113 109 108
187 186 185 182 185 167 141 229 138 161 148 99 101 76 356 344 28 37 32 31 60 79 105 77 131 160 114 130 189 213 185 165 138 135 116 74 149 152 127 120 123 121 129 139
176 174 173 173 151 130 112 87 97 130 103 65 110 115 138 350 70 86 345 62 46 25 111 117 135 105 91 239 216 147 141 116 106 102 6 126 115 107 107 111 129 141 152 159
164 162 157 130 123 120 149 125 94 77 102 127 111 147 172 100 86 82 48 19 77 331 126 145 144 165 220 221 176 171 174 167 152 86 69 93 113 129 136 124 170 165 172 171
159 139 98 114 164 133 129 46 36 15 358 48 99 129 125 110 119 74 100 14 87 137 57 326 211 248 260 230 191 174 165 145 139 118 113 116 120 160 166 192 180 175 169 169
153 122 93 121 132 120 40 91 107 185 341 144 132 142 125 349 119 124 4 146 53 152 234 210 255 261 230 134 115 98 125 152 161 120 121 147 142 159 160 175 195 189 193 202
147 117 114 114 73 54 114 168 171 208 207 172 134 151 122 117 105 102 350 111 53 214 286 240 259 247 172 150 144 132 138 143 132 125 126 128 128 142 145 155 166 197 205 195
112 73 89 129 112 143 178 181 202 189 174 170 154 127 126 91 63 72 98 86 182 99 156 234 229 285 214 168 137 140 129 124 119 115 120 128 129 138 135 158 185 180 183 192
93 137 138 191 183 212 187 178 163 198 138 138 124 97 111 124 70 140 96 163 129 134 242 240 253 223 160 134 124 126 150 149 135 132 125 124 137 154 172 182 183 186 189 194
117 152 187 188 113 79 215 154 114 168 146 135 106 68 86 92 116 82 120 148 203 215 230 229 229 157 126 132 128 122 129 134 131 134 146 161 165 164 157 181 209 207 198 194
102 92 102 99 83 101 201 162 131 199 147 98 63 114 90 143 140 157 194 163 214 238 212 216 158 138 141 144 136 134 138 145 136 147 167 172 171 167 156 118 99 230 221 205
85 84 70 101 98 143 169 182 152 135 154 117 120 111 177 112 129 179 178 200 216 226 249 176 142 138 133 127 118 123 128 133 149 151 159 151 147 149 124 92 52 184 183 170